Location: Azul
(36.7830°S, 59.8500°W)
Time: 18:48:18
(UTC-03:00)

FO-29 - Pass Details

Date: 01 November 2021
Orbit: 799 x 1322 km, 98.5° (Epoch: 05 December)

Event Time Altitude Azimuth Distance (km) Brightness Sun altitude
Rises 22:02:09 0° 166° (SSE) 4,225 13.2 -26.0°
Reaches altitude 10° 22:04:48 10° 165° (SSE) 3,296 12.6 -26.4°
Maximum altitude 22:12:36 80° 78° (ENE) 1,350 10.0 -27.5°
Enters shadow 22:15:16 47° 359° (N) 1,702 10.4 -27.8°
